Location: Baumgartsau
(48.4586°N, 14.0864°E)
Time: 13:45:59
(UTC+00:00)

Cosmos 1802 Rocket - Visible Passes

Search period start: 06 August 2020 00:00
Search period end: 16 August 2020 00:00
Orbit: 954 x 1011 km, 82.9° (Epoch: 05 August)

Date Brightness Start Highest point End Pass type
(mag) Time Alt. Az. Time Alt. Az. Time Alt. Az.
06 Aug 5.7 20:19:12 14° ESE 20:21:31 17° ENE 20:25:22 10° NE visible
06 Aug 4.0 22:04:01 46° S 22:06:09 90° E 22:12:35 10° N visible
06 Aug 6.0 23:48:50 12° W 23:52:37 19° WNW 23:56:58 10° NNW visible
07 Aug 5.0 20:46:33 24° ESE 20:48:39 30° E 20:54:01 10° NNE visible
07 Aug 4.5 22:31:22 35° SW 22:33:52 54° WNW 22:40:08 10° N visible
08 Aug 6.4 00:19:33 10° WNW 00:21:01 11° NW 00:22:30 10° NW visible
08 Aug 4.3 21:13:52 37° SE 21:15:59 51° E 21:22:07 10° NNE visible
08 Aug 5.4 22:58:41 21° WSW 23:01:48 32° WNW 23:07:26 10° N visible
09 Aug 5.7 19:56:22 13° ESE 19:58:54 16° ENE 20:02:36 10° NE visible
09 Aug 4.0 21:41:11 43° S 21:43:30 87° E 21:49:54 10° N visible
09 Aug 6.0 23:25:59 11° WSW 23:29:56 19° WNW 23:34:22 10° NNW visible
10 Aug 5.0 20:23:39 23° ESE 20:26:01 29° E 20:31:19 10° NNE visible
10 Aug 4.5 22:08:28 33° SW 22:11:12 55° WNW 22:17:28 10° N visible
10 Aug 6.5 23:56:34 10° WNW 23:58:19 11° NW 00:00:04 10° NW visible
11 Aug 4.3 20:50:56 34° SE 20:53:21 49° E 20:59:26 10° NNE visible
11 Aug 5.3 22:35:44 20° WSW 22:39:07 33° WNW 22:44:47 10° N visible
12 Aug 5.7 19:33:22 12° ESE 19:36:17 16° ENE 19:39:49 10° NE visible
12 Aug 4.0 21:18:11 38° S 21:20:51 85° E 21:27:14 10° N visible
12 Aug 6.0 23:02:58 11° WSW 23:07:15 20° WNW 23:11:44 10° NNW visible
13 Aug 5.1 20:00:36 20° ESE 20:03:24 28° E 20:08:37 10° NNE visible
13 Aug 4.5 21:45:24 30° SW 21:48:33 57° WNW 21:54:48 10° N visible
13 Aug 6.5 23:33:38 10° WNW 23:35:37 11° NW 23:37:36 10° NW visible
14 Aug 4.3 20:27:48 29° SE 20:30:43 48° E 20:36:44 10° NNE visible
14 Aug 5.3 22:12:36 18° WSW 22:16:27 34° WNW 22:22:08 10° N visible
15 Aug 5.7 19:10:17 10° ESE 19:13:40 15° ENE 19:17:02 10° NE visible
15 Aug 3.9 20:54:58 32° S 20:58:13 82° E 21:04:33 10° N visible
15 Aug 6.1 22:40:00 10° WSW 22:44:33 20° WNW 22:49:07 10° NNW visible
